Location: Cantaing
(50.1487°N, 3.1675°E)
Time: 03:03:40
(UTC+00:00)

Cosmos 1844 Rocket - Pass Details

Date: 12 April 2026
Orbit: 825 x 842 km, 71.0° (Epoch: 11 May)

Event Time Altitude Azimuth Distance (km) Brightness Sun altitude
Rises 19:58:23 0° 316° (NW) 3,377 7.5 -12.8°
Reaches altitude 10° 20:02:10 10° 291° (WNW) 2,435 6.5 -13.3°
Maximum altitude 20:04:40 13° 264° (W) 2,205 5.6 -13.7°
Drops below altitude 10° 20:07:10 10° 237° (WSW) 2,424 5.4 -14.0°
Sets 20:10:55 0° 211° (SSW) 3,350 5.8 -14.5°
